COSMOS 2251 DEB, 34910

Orbit data source: Space-Track

COSMOS 2251 DEB, 34910 is space debris in LEO originally from a launch on Wed, 16 Jun 1993 UTC launched from the Plesetsk Missile And Space Complex (PKMTR). The debris from Iridium 33, an American commercial communications satellite, has been tracked extensively since its accidental collision with the defunct Russian satellite Cosmos 2251 in 2009. This event, occurring at high speed in low Earth orbit (LEO), generated thousands of pieces of space debris, significantly increasing the risk of further collisions. The Iridium 33 debris cloud has impacted space traffic management and orbital debris mitigation strategies, making it a subject of ongoing study in space situational awareness.

Loading next visibility...
Identifier
34910, 1993-036ADF
Orbit
LEO
Country
Flag of CISCIS
Related business
Manufacturer
Unknown
Mission
Spacecraft
Bus & Motor
Unknown
Mass
Unknown
Launch date (UTC)
1993-06-16 (32 years ago)
Launch vehicle
Unknown
Launch site
Plesetsk Missile And Space Complex (PKMTR)
Object type
Payload
Rocket body
Debris
Shape & HBR
Unknown shape, 0.1 m
Radar Cross Section
Small (<0.1 m²)

Expand to show TLE details & history
Last TLE update: 1 day ago

TLE from 1 day ago
0 COSMOS 2251 DEB
1 34910U 93036ADF 25298.91899108  .00000591  00000-0  62223-3 0  9992
2 34910  73.8757 176.8823 0468572 303.6646  68.4805 13.37577807808859
Epoch: 2025-10-25T22:03Z
TLE epoch observation values (Epoch: 2025-10-25T22:03:20.829Z)
Latitude
16.53605°
Longitude
176.40108°
Altitude
1,005.91 km
Speed
7.406 km/s
True Right ascension
12h 07m 07s
True Declination
16° 26' 44"
Sunlit
Object was in daylight at epoch
Visualization orbit readout
Latitude
Unknown
Longitude
Unknown
Altitude
Unknown
Speed
Unknown
Apparent Right ascension
Unknown
Apparent Declination
Unknown
Sunlit
N/A
Visualization observer readout
Local Sidereal Time
03:06:48
Azimuth
Unknown
Elevation
Unknown
Doppler factor
Unknown
Orbital elements
Apogee altitude
1,467.212 km
Perigee altitude
764.899 km
Semi-major axis
7,494.193 km
Eccentricity
0.04686
Inclination
73.8757°
RAAN
176.8823°
Arg. of periapsis
303.6646°
True anomaly
73.57848°
Mean anomaly
68.4805°
Eccentric anomaly
71.01925°
Mean motion
3.34546 °/min
Orbital period
107.61 mins
BSTAR
0.00062223
Loading maneuver chart data...
Computing Atmospheric mass density...

Documentation

Showing up to 5 results
|